Location: Unspecified
(0.0000°N, 0.0000°E)
Time: 11:45:54
(UTC+00:00)

Vanguard 3 - Pass Details

Date: 13 October 2022
Orbit: 509 x 3255 km, 33.3° (Epoch: 30 November)

Event Time Altitude Azimuth Distance (km) Brightness Sun altitude
Rises 19:10:04 0° 231° (SW) 6,832 12.9 -20.8°
Reaches altitude 10° 19:17:28 10° 214° (SSW) 6,095 12.1 -22.6°
Maximum altitude 19:28:59 18° 177° (S) 5,518 11.4 -25.4°
Drops below altitude 10° 19:40:01 10° 141° (SE) 5,826 11.2 -28.2°
Enters shadow 19:43:02 - 132° (SE) 6,063 11.2 -28.9°
